Regional Weather Roundup
Issued by NWS Upton, NY

Current Version | Previous Version | Graphics & Text | Print | Product List | Glossary Off
Versions: 1 2 3 4 5 6 7 8 9 10 11 12 13 14 15 16 17 18 19 20 21 22 23 24 25 26 27 28 29 30 31 32 33 34 35 36 37 38 39 40 41 42 43 44 45 46 47 48 49 50

000
ASUS41 KOKX 230805
RWROKX

REGIONAL WEATHER ROUNDUP
NATIONAL WEATHER SERVICE NEW YORK NY
400 AM EDT SAT AUG 23 2014

NOTE: "FAIR" INDICATES FEW OR NO CLOUDS BELOW 12,000 FEET WITH NO
SIGNIFICANT WEATHER AND/OR OBSTRUCTIONS TO VISIBILITY.

NYZ071-072-176-178-NJZ106-104-230900-
NEW YORK CITY METRO AREA


CITY           SKY/WX    TMP DP  RH WIND       PRES   REMARKS
CENTRAL PARK   PTCLDY    68  59  73 VRB3      30.07S
LAGUARDIA APRT PTCLDY    68  60  75 E6        30.04S
KENNEDY INTL   PTCLDY    66  60  81 E7        30.04F
NEWARK/LIBERTY PTCLDY    68  59  73 NE6       30.04S
BRNX BOT. GARD   N/A     66  61  82 NE3       30.04F
TETERBORO      PTCLDY    67  58  72 CALM      30.03F
$$

NYZ177-179-078>081-230900-
LONG ISLAND NEW YORK

CITY           SKY/WX    TMP DP  RH WIND       PRES   REMARKS
FARMINGDALE    CLEAR     62  60  93 NE6       30.04F
ISLIP          CLEAR     65  60  84 NE6       30.03S
SHIRLEY        CLEAR     62  59  90 N3        30.05S
WESTHAMPTON    CLEAR     65  60  84 E5        30.06S
MONTAUK POINT    N/A     66  62  87 NE7       30.06F
$$

NYZ052-065-067-230900-
HUDSON VALLEY

CITY           SKY/WX    TMP DP  RH WIND       PRES   REMARKS
WHITE PLAINS   MOCLDY    65  61  87 E6        30.05S
NEWBURGH       NOT AVBL
MONTGOMERY     CLOUDY    64  62  93 NE6       30.06S
POUGHKEEPSIE   MOCLDY    66  62  87 CALM      30.05S
ALBANY         CLOUDY    63  61  93 N3        30.09S
$$

NJZ001-105-106-008-010-013-015-019>022-104-230900-
NEW JERSEY

CITY           SKY/WX    TMP DP  RH WIND       PRES   REMARKS
NEWARK/LIBERTY PTCLDY    68  59  73 NE6       30.04S
TETERBORO      PTCLDY    67  58  72 CALM      30.03F
CALDWELL       PTCLDY    62  57  83 CALM      30.05S
MORRISTOWN     PTCLDY    61  57  88 CALM      30.05S
SOMERVILLE     MOCLDY    65  57  75 NE3       30.02S
LINDEN         FAIR      72  61  68 E8        30.05S
SUSSEX         MOCLDY    65  62  90 CALM      30.05F
ANDOVER          N/A     64  61  90 CALM      30.05S
TRENTON        CLOUDY    67  61  81 E8        30.02S
MILLVILLE      CLEAR     63  61  93 NW3       30.01R
ATLANTIC CITY  PTCLDY    64  63  96 CALM      30.00S
WRIGHTSTOWN    PTCLDY    64  62  93 NE7       30.00S
TOMS RIVER     CLOUDY    68  63  83 E3        30.02S
BELMAR         CLOUDY    68  59  73 E12       30.02F
$$

PAZ047>061-062-071-230900-
EASTERN PENNSYLVANIA

CITY           SKY/WX    TMP DP  RH WIND       PRES   REMARKS
PHILADELPHIA   MOCLDY    68  62  81 E7        30.02S
ALLENTOWN      CLOUDY    67  61  81 NE5       30.04R
SCRANTON       LGT RAIN  66  59  78 NE3       30.04S
$$

CTZ002-004>006-009-010-012-RIZ004-006-007-MAZ004-011-015-230900-
SOUTHERN NEW ENGLAND
 IN CT

CITY           SKY/WX    TMP DP  RH WIND       PRES   REMARKS
BRADLEY INTL   MOCLDY    64  59  83 N7        30.08S
HARTFORD       CLOUDY    65  60  84 N8        30.08R
DANBURY        CLOUDY    65  60  84 NE8       30.08S
WTRBRY/OXFORD  CLOUDY    63  55  77 NE8       30.09S
BRIDGEPORT     CLOUDY    67  62  84 NE7       30.05F
MERIDEN        CLOUDY    65  59  81 N5        30.08R
NEW HAVEN      CLOUDY    66  60  81 N8        30.06S
CHESTER        CLOUDY    63  61  94 NE5       30.08S
GROTON         CLOUDY    63  60  90 NE8       30.05S
WILLIMANTIC    MOCLDY    64  60  87 NE7       30.08S

 IN RI

CITY           SKY/WX    TMP DP  RH WIND       PRES   REMARKS
PROVIDENCE     MOCLDY    64  60  87 N8        30.08S
BLOCK ISLAND   PTCLDY    64  61  88 NE10G16   30.05S
WESTERLY       PTCLDY    63  60  90 NE5       30.06F

 IN MA

CITY           SKY/WX    TMP DP  RH WIND       PRES   REMARKS
BOSTON         MOCLDY    63  59  87 N9        30.09S
WORCESTER      CLOUDY    59  57  93 NE6       30.11S
WESTFIELD      CLOUDY    64  60  87 N6        30.09S
PROVINCETOWN   CLEAR     64  59  82 MISG      30.07F
NANTUCKET      PTCLDY    60  58  92 NE7       30.04S
$$

ANZ330-335-338-340-345-350-353-355-230900-
COASTAL MARINE OBSERVATIONS


STATION/POSITION TIME  SKY/WX   TEMP    WIND        PRES    VSBY  WAVE
                                AIR SEA DIR/SP/G                  HT/PER
                 (UTC)          (F)     (DEG/KT/KT) (MB)    (MI)  (FT/S)
NY HARB ENTRANCE NOT AVBL
4S FIRE IS       NOT AVBL
23SW MTP         0800            67 70              1016.4          5/ 6
HUDSON CANYON    0800            70 72   60/ 17/ 21 1014.7          5/ 6
EXECUTION ROCKS  0800            69 73   90/ 10/ 14   N/A
WESTERN LI SOUND 0800            69      80/ 14/ 17   N/A           2/ 4
CENTRAL LI SOUND 0700            67 72   50/ 14/ 16   N/A           1/ 4
EASTERN LI SOUND 0700            66 68   50/ 14/ 17   N/A
ROBBINS REEF     0800            68      90/ 11/ 13   N/A
$$


>>>>>>>>>>>>>>>>>>>>>>>>>>>> KEY <<<<<<<<<<<<<<<<<<<<<<<<<<<
>                                                          <
>     SKY/WX - SKY CONDITION/PRESENT WEATHER               <
>     TMP    - TEMPERATURE IN FAHRENHEIT                   <
>     DP     - DEWPOINT IN FAHRENHEIT                      <
>     RH     - RELATIVE HUMIDITY IN PERCENT                <
>     WIND   - DIRECTION AND SPEED IN MPH                  <
>     PRES   - MEAN SEA LEVEL PRESSURE IN INCHES OF HG     <
>     WCI    - WIND CHILL INDEX                            <
>     VSB    - VISIBILITY IN MILES                         <
>     HX     - HEAT INDEX                                  <
>     TC     - TEMPERATURE IN CELSIUS                      <
>     VRB    - VARIABLE WIND DIRECTION                     <
>                                                          <
>>>>>>>>>>>>>>>>>>>>>>>>>>>> KEY <<<<<<<<<<<<<<<<<<<<<<<<<<<





USA.gov is the U.S. government's official web portal to all federal, state and local government web resources and services.